Location: ????????
(55.5667°N, 37.5833°E)
Time: 06:53:25
(UTC+00:00)

SJ 16-02 - Pass Details

Date: 14 April 2026
Orbit: 582 x 592 km, 75.0° (Epoch: 13 May)

Event Time Altitude Azimuth Distance (km) Brightness Sun altitude
Rises 18:58:42 0° 338° (NNW) 2,835 6.2 -17.6°
Reaches altitude 10° 19:01:46 10° 1° (N) 1,928 4.6 -17.9°
Maximum altitude 19:04:21 15° 38° (NE) 1,595 3.6 -18.1°
Enters shadow 19:06:49 10° 74° (ENE) 1,891 3.6 -18.3°
